This demonstration page uses our WeatherBlox Daily Observations layout. Learn more.

41.55636, -103.73856

Hourly Observations for June 1, 2017

Temp ( °F °C ) Dew Point ( °F °C ) Humidity (%) Winds ( mph kmh ) Pressure ( in mb ) Visibility ( mi km ) Precip ( " mm )
12:53 am 00:53 Clear 57 13.9 49 9.4 74 74 ESE 6 9 29.93 1013 10 16.0934 0 0
1:53 am 01:53 Clear 54 12.2 48 8.9 80 80 ESE 8 13 29.92 1013 10 16.0934 0 0
2:53 am 02:53 Clear 52 11.1 48 8.9 86 86 ESE 8 13 29.91 1013 10 16.0934 0 0
3:53 am 03:53 Clear 51 10.6 46 7.8 83 83 ESE 10 17 29.9 1013 10 16.0934 0 0
4:53 am 04:53 Clear 50 10 46 7.8 86 86 E 8 13 29.89 1012 10 16.0934 0 0
5:53 am 05:53 Sunny 50 10 46 7.8 86 86 ESE 9 15 29.9 1013 10 16.0934 0 0
6:53 am 06:53 Sunny 54 12.2 48 8.9 80 80 ESE 12 19 29.91 1013 10 16.0934 0 0
7:53 am 07:53 Sunny 61 16.1 50 10 67 67 ESE 12 19 29.88 1012 10 16.0934 0 0
8:53 am 08:53 Sunny 66 18.9 51 10.6 59 59 SE 13 20 29.88 1012 10 16.0934 0 0
9:53 am 09:53 Sunny 70 21.1 54 12.2 57 57 undefined N/A 29.86 1011 10 16.0934 0 0
10:53 am 10:53 Sunny 76 24.4 53 11.7 45 45 SSE 17 28 29.84 1011 10 16.0934 0 0
11:53 am 11:53 Sunny 80 26.7 53 11.7 39 39 SE 13 20 29.82 1010 10 16.0934 0 0
12:53 pm 12:53 Sunny 83 28.3 49 9.4 31 31 SSE 16 26 29.8 1009 10 16.0934 0 0
1:53 pm 13:53 Sunny 85 29.4 47 8.3 27 27 SSE 13 20 29.78 1009 10 16.0934 0 0
2:53 pm 14:53 Sunny 86 30 46 7.8 25 25 S 14 22 29.78 1009 10 16.0934 0 0
3:53 pm 15:53 Sunny 86 30 47 8.3 26 26 SSE 16 26 29.76 1008 10 16.0934 0 0
4:53 pm 16:53 Sunny 85 29.4 48 8.9 28 28 SSE 14 22 29.76 1008 10 16.0934 0 0
5:53 pm 17:53 Sunny 81 27.2 48 8.9 32 32 S 10 17 29.76 1008 10 16.0934 0 0
6:53 pm 18:53 Sunny 78 25.6 50 10 37 37 SE 8 13 29.76 1008 10 16.0934 0 0
7:53 pm 19:53 Sunny 74 23.3 53 11.7 48 48 SSE 6 9 29.75 1008 10 16.0934 0 0
8:53 pm 20:53 Clear 71 21.7 52 11.1 51 51 SE 7 11 29.76 1008 10 16.0934 0 0
9:53 pm 21:53 Clear 68 20 53 11.7 59 59 ESE 12 19 29.78 1008 10 16.0934 0 0
10:53 pm 22:53 Clear 64 17.8 53 11.7 68 68 E 8 13 29.77 1008 10 16.0934 0 0
11:53 pm 23:53 Clear 62 16.7 54 12.2 75 75 ESE 7 11 29.78 1008 10 16.0934 0 0

Powered by AerisWeather